NOAA 16 DEB, 41422

Orbit data source: Space-Track

NOAA 16 DEB, 41422 is space debris in SSO originally from a launch on Thu, 21 Sep 2000 UTC launched from the Air Force Western Test Range (AFWTR). Debris objects in space refer to the collection of defunct objects orbiting the Earth. Examples of debris include non-operational satellites, rocket bodies, and fragments generated from explosions, collisions, or faulty payload assembly.

Loading next visibility...
Identifier
41422, 2000-055LB
Orbit
SSO
Country
Flag of USUS
Related business
Manufacturer
Unknown
Mission
Spacecraft
Bus & Motor
Unknown
Mass
Unknown
Launch date (UTC)
2000-09-21 (25 years ago)
Launch vehicle
Unknown
Launch site
Air Force Western Test Range (AFWTR)
Object type
Payload
Rocket body
Debris
Shape & HBR
Unknown
Radar Cross Section
Small (<0.1 m²)

Expand to show TLE details & history
Last TLE update: 2 days ago

TLE from 2 days ago
0 NOAA 16 DEB
1 41422U 00055LB  25260.04863165  .00003322  00000-0  14320-2 0  9993
2 41422  98.7250 334.0478 0014344 247.5088 112.4573 14.25154537495272
Epoch: 2025-09-17T01:10Z
TLE epoch observation values (Epoch: 2025-09-17T01:10:01.774Z)
Latitude
-0.00002°
Longitude
-39.68976°
Altitude
814.845 km
Speed
7.444 km/s
True Right ascension
22h 16m 11s
True Declination
0° 00' 00"
Sunlit
Object was in full shadow at epoch
Visualization orbit readout
Latitude
Unknown
Longitude
Unknown
Altitude
Unknown
Speed
Unknown
Apparent Right ascension
Unknown
Apparent Declination
Unknown
Sunlit
N/A
Visualization observer readout
Local Sidereal Time
19:57:09
Azimuth
Unknown
Elevation
Unknown
Doppler factor
Unknown
Orbital elements
Apogee altitude
815.429 km
Perigee altitude
794.822 km
Semi-major axis
7,183.263 km
Eccentricity
0.00143
Inclination
98.725°
RAAN
334.0478°
Arg. of periapsis
247.5088°
True anomaly
112.6091°
Mean anomaly
112.4573°
Eccentric anomaly
112.53321°
Mean motion
3.56501 °/min
Orbital period
100.98 mins
BSTAR
0.001432
Loading maneuver chart data...
Computing Atmospheric mass density...
Loading historical data...
Loading historical data...
Loading historical data...
Loading historical data...
Loading historical data...
Loading historical data...
Loading historical data...

Documentation

Showing up to 5 results
|